• In Hungary
  • List of Countries
  • For 7 days
  • Water Temperature
  • Satellite Maps
  • Weather Map
  • News
  • Weather Widgets
  • user-avatar
    Login

    Hourly Weather Arkit

    Today, 23 September, Sunday

    Time Temperature Precipitation Wind Pressure Humidity
    00:00 +18°C° 0 mm 1 mps 708 mmHg 79%
    01:00 +18°C° 0 mm 1 mps 707 mmHg 79%
    02:00 +18°C° 0 mm 1 mps 707 mmHg 79%
    03:00 +18°C° 0 mm 1 mps 707 mmHg 79%
    04:00 +18°C° 0.1 mm 1 mps 707 mmHg 80%
    05:00 +18°C° 0.1 mm 1 mps 707 mmHg 80%
    06:00 +18°C° 0.1 mm 1 mps 707 mmHg 81%
    07:00 +18°C° 0.3 mm 2 mps 707 mmHg 76%
    08:00 +19°C° 0.3 mm 2 mps 707 mmHg 71%
    09:00 +21°C° 0.3 mm 2 mps 707 mmHg 67%
    10:00 +21°C° 0.4 mm 3 mps 707 mmHg 64%
    11:00 +22°C° 0.4 mm 3 mps 707 mmHg 62%
    12:00 +23°C° 0.4 mm 4 mps 707 mmHg 60%
    13:00 +23°C° 0.6 mm 4 mps 707 mmHg 61%
    14:00 +23°C° 0.6 mm 4 mps 707 mmHg 63%
    15:00 +22°C° 0.6 mm 4 mps 707 mmHg 65%
    16:00 +21°C° 0.4 mm 3 mps 707 mmHg 71%
    17:00 +20°C° 0.4 mm 3 mps 707 mmHg 78%
    18:00 +18°C° 0.4 mm 2 mps 706 mmHg 85%
    19:00 +18°C° 0 mm 2 mps 707 mmHg 83%
    20:00 +18°C° 0 mm 2 mps 707 mmHg 81%
    21:00 +18°C° 0 mm 2 mps 707 mmHg 80%
    22:00 +18°C° 0 mm 2 mps 707 mmHg 78%
    23:00 +17°C° 0 mm 2 mps 707 mmHg 76%

    Tomorrow, 24 September, Monday

    Time Temperature Precipitation Wind Pressure Humidity
    00:00 +17°C° 0 mm 2 mps 707 mmHg 74%
    01:00 +17°C° 0 mm 2 mps 707 mmHg 72%
    02:00 +17°C° 0 mm 2 mps 707 mmHg 70%
    03:00 +17°C° 0 mm 2 mps 707 mmHg 68%
    04:00 +17°C° 0 mm 2 mps 707 mmHg 67%
    05:00 +17°C° 0 mm 2 mps 707 mmHg 65%
    06:00 +17°C° 0 mm 2 mps 707 mmHg 63%
    07:00 +19°C° 0 mm 2 mps 708 mmHg 58%
    08:00 +21°C° 0 mm 2 mps 708 mmHg 53%
    09:00 +24°C° 0 mm 2 mps 709 mmHg 48%
    10:00 +25°C° 0 mm 2 mps 709 mmHg 47%
    11:00 +25°C° 0 mm 3 mps 709 mmHg 46%
    12:00 +26°C° 0 mm 3 mps 709 mmHg 45%
    13:00 +25°C° 0 mm 3 mps 709 mmHg 48%
    14:00 +25°C° 0 mm 3 mps 709 mmHg 51%
    15:00 +24°C° 0 mm 2 mps 709 mmHg 54%
    16:00 +23°C° 0 mm 2 mps 708 mmHg 60%
    17:00 +20°C° 0 mm 2 mps 708 mmHg 66%
    18:00 +20°C° 0 mm 1 mps 708 mmHg 71%
    19:00 +20°C° 0 mm 1 mps 708 mmHg 71%
    20:00 +19°C° 0 mm 2 mps 708 mmHg 70%
    21:00 +18°C° 0 mm 2 mps 708 mmHg 70%
    22:00 +18°C° 0 mm 2 mps 708 mmHg 70%
    23:00 +18°C° 0 mm 2 mps 707 mmHg 69%

    Day after tomorrow, 25 September, Tuesday

    Time Temperature Precipitation Wind Pressure Humidity
    00:00 +18°C° 0 mm 2 mps 707 mmHg 69%
    01:00 +18°C° 0 mm 2 mps 707 mmHg 68%
    02:00 +17°C° 0 mm 3 mps 706 mmHg 66%
    03:00 +17°C° 0 mm 3 mps 706 mmHg 65%
    04:00 +17°C° 0 mm 3 mps 706 mmHg 63%
    05:00 +17°C° 0 mm 3 mps 706 mmHg 62%
    06:00 +18°C° 0 mm 4 mps 705 mmHg 60%
    07:00 +20°C° 0 mm 3 mps 705 mmHg 53%
    08:00 +24°C° 0 mm 3 mps 706 mmHg 46%
    09:00 +27°C° 0 mm 3 mps 706 mmHg 39%
    10:00 +28°C° 0 mm 3 mps 705 mmHg 39%
    11:00 +28°C° 0 mm 3 mps 705 mmHg 38%
    12:00 +29°C° 0 mm 3 mps 705 mmHg 38%
    13:00 +29°C° 0 mm 3 mps 704 mmHg 39%
    14:00 +29°C° 0 mm 3 mps 704 mmHg 41%
    15:00 +29°C° 0 mm 3 mps 704 mmHg 43%
    16:00 +26°C° 0 mm 3 mps 704 mmHg 52%
    17:00 +24°C° 0 mm 2 mps 704 mmHg 61%
    18:00 +21°C° 0 mm 2 mps 704 mmHg 70%
    19:00 +21°C° 0 mm 2 mps 704 mmHg 69%
    20:00 +20°C° 0 mm 2 mps 704 mmHg 68%
    21:00 +20°C° 0 mm 2 mps 705 mmHg 67%
    22:00 +20°C° 0 mm 2 mps 705 mmHg 67%
    23:00 +20°C° 0 mm 2 mps 705 mmHg 66%

    26 September, Wednesday

    Time Temperature Precipitation Wind Pressure Humidity
    00:00 +20°C° 0 mm 2 mps 705 mmHg 65%
    01:00 +19°C° 0 mm 2 mps 705 mmHg 67%
    02:00 +19°C° 0 mm 2 mps 705 mmHg 68%
    03:00 +19°C° 0 mm 2 mps 705 mmHg 70%
    04:00 +18°C° 0 mm 3 mps 705 mmHg 75%
    05:00 +17°C° 0 mm 4 mps 705 mmHg 81%
    06:00 +17°C° 0 mm 4 mps 706 mmHg 86%
    07:00 +17°C° 0 mm 5 mps 706 mmHg 80%
    08:00 +19°C° 0 mm 5 mps 707 mmHg 74%
    09:00 +20°C° 0 mm 6 mps 707 mmHg 68%
    10:00 +20°C° 0 mm 6 mps 707 mmHg 68%
    11:00 +20°C° 0 mm 6 mps 708 mmHg 69%
    12:00 +20°C° 0 mm 6 mps 708 mmHg 69%
    13:00 +19°C° 0 mm 6 mps 708 mmHg 71%
    14:00 +17°C° 0 mm 6 mps 708 mmHg 73%
    15:00 +16°C° 0 mm 6 mps 708 mmHg 76%
    16:00 +16°C° 0 mm 6 mps 708 mmHg 79%
    17:00 +15°C° 0 mm 5 mps 708 mmHg 82%
    18:00 +14°C° 0 mm 5 mps 709 mmHg 85%
    19:00 +14°C° 0 mm 4 mps 709 mmHg 85%
    20:00 +13°C° 0 mm 4 mps 709 mmHg 85%
    21:00 +13°C° 0 mm 3 mps 710 mmHg 85%
    22:00 +13°C° 0 mm 3 mps 710 mmHg 86%
    23:00 +12°C° 0 mm 3 mps 709 mmHg 86%

    27 September, Thursday

    Time Temperature Precipitation Wind Pressure Humidity
    00:00 +12°C° 0 mm 3 mps 709 mmHg 87%
    01:00 +12°C° 0 mm 3 mps 709 mmHg 87%
    02:00 +12°C° 0 mm 3 mps 709 mmHg 87%
    03:00 +12°C° 0 mm 3 mps 709 mmHg 87%
    04:00 +12°C° 0 mm 3 mps 709 mmHg 87%
    05:00 +11°C° 0 mm 3 mps 710 mmHg 87%
    06:00 +11°C° 0 mm 3 mps 710 mmHg 87%
    07:00 +13°C° 0 mm 3 mps 710 mmHg 80%
    08:00 +15°C° 0 mm 4 mps 710 mmHg 73%
    09:00 +17°C° 0 mm 4 mps 711 mmHg 65%
    10:00 +18°C° 0 mm 4 mps 711 mmHg 64%
    11:00 +17°C° 0 mm 5 mps 711 mmHg 62%
    12:00 +19°C° 0 mm 5 mps 711 mmHg 60%
    13:00 +19°C° 0 mm 5 mps 711 mmHg 62%
    14:00 +18°C° 0 mm 4 mps 711 mmHg 63%
    15:00 +18°C° 0 mm 4 mps 710 mmHg 64%
    16:00 +17°C° 0 mm 3 mps 710 mmHg 71%
    17:00 +15°C° 0 mm 2 mps 710 mmHg 77%
    18:00 +14°C° 0 mm 2 mps 710 mmHg 84%
    19:00 +14°C° 0 mm 2 mps 710 mmHg 84%
    20:00 +14°C° 0 mm 1 mps 711 mmHg 84%
    21:00 +14°C° 0 mm 1 mps 711 mmHg 84%
    22:00 +14°C° 0 mm 1 mps 710 mmHg 83%
    23:00 +14°C° 0 mm 1 mps 710 mmHg 82%

    28 September, Friday

    Time Temperature Precipitation Wind Pressure Humidity
    00:00 +13°C° 0 mm 1 mps 710 mmHg 81%
    01:00 +13°C° 0 mm 1 mps 710 mmHg 79%
    02:00 +13°C° 0 mm 1 mps 710 mmHg 78%
    03:00 +13°C° 0 mm 1 mps 710 mmHg 77%
    04:00 +13°C° 0 mm 1 mps 710 mmHg 76%
    05:00 +13°C° 0 mm 1 mps 710 mmHg 75%
    06:00 +14°C° 0 mm 1 mps 709 mmHg 73%
    07:00 +16°C° 0 mm 2 mps 710 mmHg 67%
    08:00 +18°C° 0 mm 2 mps 710 mmHg 61%
    09:00 +20°C° 0 mm 2 mps 710 mmHg 55%
    10:00 +21°C° 0 mm 3 mps 710 mmHg 54%
    11:00 +22°C° 0 mm 3 mps 710 mmHg 53%
    12:00 +24°C° 0 mm 3 mps 710 mmHg 52%
    13:00 +24°C° 0 mm 3 mps 709 mmHg 55%
    14:00 +24°C° 0 mm 3 mps 709 mmHg 58%
    15:00 +24°C° 0 mm 3 mps 709 mmHg 61%
    16:00 +21°C° 0 mm 3 mps 709 mmHg 70%
    17:00 +19°C° 0 mm 3 mps 708 mmHg 78%
    18:00 +17°C° 0 mm 2 mps 708 mmHg 87%
    19:00 +17°C° 0 mm 2 mps 708 mmHg 85%
    20:00 +17°C° 0 mm 2 mps 709 mmHg 84%
    21:00 +17°C° 0 mm 2 mps 709 mmHg 82%
    22:00 +17°C° 0 mm 2 mps 708 mmHg 79%
    23:00 +17°C° 0 mm 2 mps 708 mmHg 76%
    Show more